Year,Month,Day,Hour,Minute,Value (Times are PST for temperature in C)
2007,04,06,00,00,11.40
2007,04,06,00,01,11.40
2007,04,06,00,02,11.40
2007,04,06,00,03,11.40
2007,04,06,00,04,11.40
2007,04,06,00,05,11.40
2007,04,06,00,06,11.40
2007,04,06,00,07,11.40
2007,04,06,00,08,11.40
2007,04,06,00,09,11.40
2007,04,06,00,10,11.40
2007,04,06,00,11,11.40
2007,04,06,00,12,11.40
2007,04,06,00,13,11.40
2007,04,06,00,14,11.40
2007,04,06,00,15,11.40
2007,04,06,00,16,11.40
2007,04,06,00,17,11.40
2007,04,06,00,18,11.40
2007,04,06,00,19,11.40
2007,04,06,00,20,11.30
2007,04,06,00,21,11.30
2007,04,06,00,22,11.30
2007,04,06,00,23,11.30
2007,04,06,00,24,11.30
2007,04,06,00,25,11.30
2007,04,06,00,26,11.30
2007,04,06,00,27,11.20
2007,04,06,00,28,11.20
2007,04,06,00,29,11.20
2007,04,06,00,30,11.20
2007,04,06,00,31,11.20
2007,04,06,00,32,11.20
2007,04,06,00,33,11.20
2007,04,06,00,34,11.20
2007,04,06,00,35,11.20
2007,04,06,00,36,11.20
2007,04,06,00,37,11.20
2007,04,06,00,38,11.20
2007,04,06,00,39,11.20
2007,04,06,00,40,11.30
2007,04,06,00,41,11.40
2007,04,06,00,42,11.40
2007,04,06,00,43,11.60
2007,04,06,00,44,11.70
2007,04,06,00,45,11.80
2007,04,06,00,46,11.90
2007,04,06,00,47,12.00
2007,04,06,00,48,12.20
2007,04,06,00,49,12.30
2007,04,06,00,50,12.40
2007,04,06,00,51,12.50
2007,04,06,00,52,12.50
2007,04,06,00,53,12.70
2007,04,06,00,54,12.80
2007,04,06,00,55,12.80
2007,04,06,00,56,12.80
2007,04,06,00,57,12.80
2007,04,06,00,58,12.80
2007,04,06,00,59,12.90
2007,04,06,01,00,12.90
2007,04,06,01,01,13.00
2007,04,06,01,02,13.10
2007,04,06,01,03,13.20
2007,04,06,01,04,13.30
2007,04,06,01,05,13.30
2007,04,06,01,06,13.40
2007,04,06,01,07,13.40
2007,04,06,01,08,13.50
2007,04,06,01,09,13.50
2007,04,06,01,10,13.50
2007,04,06,01,11,13.50
2007,04,06,01,12,13.60
2007,04,06,01,13,13.60
2007,04,06,01,14,13.60
2007,04,06,01,15,13.60
2007,04,06,01,16,13.60
2007,04,06,01,17,13.60
2007,04,06,01,18,13.60
2007,04,06,01,19,13.60
2007,04,06,01,20,13.60
2007,04,06,01,21,13.60
2007,04,06,01,22,13.60
2007,04,06,01,23,13.70
2007,04,06,01,24,13.60
2007,04,06,01,25,13.60
2007,04,06,01,26,13.70
2007,04,06,01,27,13.70
2007,04,06,01,28,13.70
2007,04,06,01,29,13.70
2007,04,06,01,30,13.70
2007,04,06,01,31,13.70
2007,04,06,01,32,13.70
2007,04,06,01,33,13.70
2007,04,06,01,34,13.70
2007,04,06,01,35,13.70
2007,04,06,01,36,13.70
2007,04,06,01,37,13.60
2007,04,06,01,38,13.60
2007,04,06,01,39,13.60
2007,04,06,01,40,13.60
2007,04,06,01,41,13.60
2007,04,06,01,42,13.60
2007,04,06,01,43,13.60
2007,04,06,01,44,13.60
2007,04,06,01,45,13.60
2007,04,06,01,46,13.60
2007,04,06,01,47,13.60
2007,04,06,01,48,13.60
2007,04,06,01,49,13.50
2007,04,06,01,50,13.50
2007,04,06,01,51,13.50
2007,04,06,01,52,13.50
2007,04,06,01,53,13.50
2007,04,06,01,54,13.50
2007,04,06,01,55,13.40
2007,04,06,01,56,13.40
2007,04,06,01,57,13.40
2007,04,06,01,58,13.30
2007,04,06,01,59,13.30
2007,04,06,02,00,13.30
2007,04,06,02,01,13.30
2007,04,06,02,02,13.30
2007,04,06,02,03,13.30
2007,04,06,02,04,13.30
2007,04,06,02,05,13.30
2007,04,06,02,06,13.30
2007,04,06,02,07,13.20
2007,04,06,02,08,13.20
2007,04,06,02,09,13.20
2007,04,06,02,10,13.20
2007,04,06,02,11,13.20
2007,04,06,02,12,13.20
2007,04,06,02,13,13.20
2007,04,06,02,14,13.20
2007,04,06,02,15,13.10
2007,04,06,02,16,13.10
2007,04,06,02,17,13.10
2007,04,06,02,18,13.10
2007,04,06,02,19,13.10
2007,04,06,02,20,13.10
2007,04,06,02,21,13.10
2007,04,06,02,22,13.10
2007,04,06,02,23,13.10
2007,04,06,02,24,13.10
2007,04,06,02,25,13.10
2007,04,06,02,26,13.10
2007,04,06,02,27,13.10
2007,04,06,02,28,13.10
2007,04,06,02,29,13.00
2007,04,06,02,30,13.00
2007,04,06,02,31,13.00
2007,04,06,02,32,12.90
2007,04,06,02,33,12.90
2007,04,06,02,34,12.90
2007,04,06,02,35,12.80
2007,04,06,02,36,12.80
2007,04,06,02,37,12.80
2007,04,06,02,38,12.80
2007,04,06,02,39,12.80
2007,04,06,02,40,12.80
2007,04,06,02,41,12.90
2007,04,06,02,42,12.90
2007,04,06,02,43,12.90
2007,04,06,02,44,12.90
2007,04,06,02,45,13.00
2007,04,06,02,46,13.00
2007,04,06,02,47,13.00
2007,04,06,02,48,12.90
2007,04,06,02,49,12.90
2007,04,06,02,50,12.90
2007,04,06,02,51,12.90
2007,04,06,02,52,12.90
2007,04,06,02,53,12.90
2007,04,06,02,54,12.90
2007,04,06,02,55,12.90
2007,04,06,02,56,12.90
2007,04,06,02,57,12.90
2007,04,06,02,58,12.90
2007,04,06,02,59,12.90
2007,04,06,03,00,12.90
2007,04,06,03,01,12.90
2007,04,06,03,02,12.90
2007,04,06,03,03,12.90
2007,04,06,03,04,12.90
2007,04,06,03,05,12.90
2007,04,06,03,06,12.90
2007,04,06,03,07,12.90
2007,04,06,03,08,12.90
2007,04,06,03,09,12.90
2007,04,06,03,10,12.80
2007,04,06,03,11,12.80
2007,04,06,03,12,12.80
2007,04,06,03,13,12.80
2007,04,06,03,14,12.80
2007,04,06,03,15,12.80
2007,04,06,03,16,12.80
2007,04,06,03,17,12.80
2007,04,06,03,18,12.80
2007,04,06,03,19,12.80
2007,04,06,03,20,12.80
2007,04,06,03,21,12.80
2007,04,06,03,22,12.80
2007,04,06,03,23,12.80
2007,04,06,03,24,12.80
2007,04,06,03,25,12.80
2007,04,06,03,26,12.80
2007,04,06,03,27,12.80
2007,04,06,03,28,12.80
2007,04,06,03,29,12.80
2007,04,06,03,30,12.80
2007,04,06,03,31,12.80
2007,04,06,03,32,12.80
2007,04,06,03,33,12.80
2007,04,06,03,34,12.70
2007,04,06,03,35,12.70
2007,04,06,03,36,12.70
2007,04,06,03,37,12.60
2007,04,06,03,38,12.60
2007,04,06,03,39,12.60
2007,04,06,03,40,12.60
2007,04,06,03,41,12.60
2007,04,06,03,42,12.50
2007,04,06,03,43,12.50
2007,04,06,03,44,12.50
2007,04,06,03,45,12.50
2007,04,06,03,46,12.40
2007,04,06,03,47,12.40
2007,04,06,03,48,12.30
2007,04,06,03,49,12.30
2007,04,06,03,50,12.30
2007,04,06,03,51,12.30
2007,04,06,03,52,12.30
2007,04,06,03,53,12.20
2007,04,06,03,54,12.20
2007,04,06,03,55,12.20
2007,04,06,03,56,12.20
2007,04,06,03,57,12.10
2007,04,06,03,58,12.10
2007,04,06,03,59,12.00
2007,04,06,04,00,12.00
2007,04,06,04,01,11.90
2007,04,06,04,02,11.90
2007,04,06,04,03,11.90
2007,04,06,04,04,11.80
2007,04,06,04,05,11.80
2007,04,06,04,06,11.80
2007,04,06,04,07,11.80
2007,04,06,04,08,11.80
2007,04,06,04,09,11.80
2007,04,06,04,10,11.80
2007,04,06,04,11,11.90
2007,04,06,04,12,11.90
2007,04,06,04,13,11.90
2007,04,06,04,14,11.90
2007,04,06,04,15,11.90
2007,04,06,04,16,11.90
2007,04,06,04,17,11.90
2007,04,06,04,18,11.90
2007,04,06,04,19,11.90
2007,04,06,04,20,12.00
2007,04,06,04,21,12.00
2007,04,06,04,22,12.00
2007,04,06,04,23,12.00
2007,04,06,04,24,12.00
2007,04,06,04,25,12.00
2007,04,06,04,26,12.00
2007,04,06,04,27,12.00
2007,04,06,04,28,12.00
2007,04,06,04,29,12.00
2007,04,06,04,30,12.00
2007,04,06,04,31,11.90
2007,04,06,04,32,11.80
2007,04,06,04,33,11.80
2007,04,06,04,34,11.70
2007,04,06,04,35,11.60
2007,04,06,04,36,11.60
2007,04,06,04,37,11.60
2007,04,06,04,38,11.50
2007,04,06,04,39,11.40
2007,04,06,04,40,11.40
2007,04,06,04,41,11.40
2007,04,06,04,42,11.40
2007,04,06,04,43,11.40
2007,04,06,04,44,11.40
2007,04,06,04,45,11.40
2007,04,06,04,46,11.40
2007,04,06,04,47,11.40
2007,04,06,04,48,11.50
2007,04,06,04,49,11.60
2007,04,06,04,50,11.60
2007,04,06,04,51,11.60
2007,04,06,04,52,11.70
2007,04,06,04,53,11.70
2007,04,06,04,54,11.80
2007,04,06,04,55,11.80
2007,04,06,04,56,11.90
2007,04,06,04,57,11.90
2007,04,06,04,58,11.90
2007,04,06,04,59,11.90
2007,04,06,05,00,11.80
2007,04,06,05,01,11.80
2007,04,06,05,02,11.70
2007,04,06,05,03,11.70
2007,04,06,05,04,11.60
2007,04,06,05,05,11.60
2007,04,06,05,06,11.60
2007,04,06,05,07,11.60
2007,04,06,05,08,11.60
2007,04,06,05,09,11.50
2007,04,06,05,10,11.40
2007,04,06,05,11,11.40
2007,04,06,05,12,11.40
2007,04,06,05,13,11.40
2007,04,06,05,14,11.40
2007,04,06,05,15,11.40
2007,04,06,05,16,11.40
2007,04,06,05,17,11.40
2007,04,06,05,18,11.40
2007,04,06,05,19,11.40
2007,04,06,05,20,11.40
2007,04,06,05,21,11.40
2007,04,06,05,22,11.40
2007,04,06,05,23,11.40
2007,04,06,05,24,11.30
2007,04,06,05,25,11.10
2007,04,06,05,26,10.90
2007,04,06,05,27,10.80
2007,04,06,05,28,10.70
2007,04,06,05,29,10.50
2007,04,06,05,30,10.40
2007,04,06,05,31,10.30
2007,04,06,05,32,10.20
2007,04,06,05,33,10.20
2007,04,06,05,34,10.10
2007,04,06,05,35,10.10
2007,04,06,05,36,10.00
2007,04,06,05,37,9.90
2007,04,06,05,38,9.90
2007,04,06,05,39,9.80
2007,04,06,05,40,9.80
2007,04,06,05,41,9.70
2007,04,06,05,42,9.70
2007,04,06,05,43,9.70
2007,04,06,05,44,9.70
2007,04,06,05,45,9.70
2007,04,06,05,46,9.70
2007,04,06,05,47,9.70
2007,04,06,05,48,9.70
2007,04,06,05,49,9.70
2007,04,06,05,50,9.70
2007,04,06,05,51,9.70
2007,04,06,05,52,9.70
2007,04,06,05,53,9.70
2007,04,06,05,54,9.70
2007,04,06,05,55,9.70
2007,04,06,05,56,9.70
2007,04,06,05,57,9.70
2007,04,06,05,58,9.80
2007,04,06,05,59,9.80
2007,04,06,06,00,9.90
2007,04,06,06,01,9.90
2007,04,06,06,02,10.00
2007,04,06,06,03,10.10
2007,04,06,06,04,10.20
2007,04,06,06,05,10.30
2007,04,06,06,06,10.30
2007,04,06,06,07,10.40
2007,04,06,06,08,10.40
2007,04,06,06,09,10.40
2007,04,06,06,10,10.40
2007,04,06,06,11,10.40
2007,04,06,06,12,10.40
2007,04,06,06,13,10.40
2007,04,06,06,14,10.40
2007,04,06,06,15,10.40
2007,04,06,06,16,10.50
2007,04,06,06,17,10.60
2007,04,06,06,18,10.60
2007,04,06,06,19,10.60
2007,04,06,06,20,10.70
2007,04,06,06,21,10.80
2007,04,06,06,22,11.00
2007,04,06,06,23,11.10
2007,04,06,06,24,11.20
2007,04,06,06,25,11.20
2007,04,06,06,26,11.20
2007,04,06,06,27,11.20
2007,04,06,06,28,11.20
2007,04,06,06,29,11.20
2007,04,06,06,30,11.30
2007,04,06,06,31,11.30
2007,04,06,06,32,11.40
2007,04,06,06,33,11.50
2007,04,06,06,34,11.60
2007,04,06,06,35,11.60
2007,04,06,06,36,11.70
2007,04,06,06,37,11.70
2007,04,06,06,38,11.70
2007,04,06,06,39,11.70
2007,04,06,06,40,11.60
2007,04,06,06,41,11.50
2007,04,06,06,42,11.30
2007,04,06,06,43,11.30
2007,04,06,06,44,11.10
2007,04,06,06,45,11.00
2007,04,06,06,46,10.90
2007,04,06,06,47,10.80
2007,04,06,06,48,10.70
2007,04,06,06,49,10.60
2007,04,06,06,50,10.60
2007,04,06,06,51,10.50
2007,04,06,06,52,10.40
2007,04,06,06,53,10.30
2007,04,06,06,54,10.30
2007,04,06,06,55,10.20
2007,04,06,06,56,10.20
2007,04,06,06,57,10.40
2007,04,06,06,58,10.50
2007,04,06,06,59,10.70
2007,04,06,07,00,10.80
2007,04,06,07,01,11.00
2007,04,06,07,02,11.20
2007,04,06,07,03,11.40
2007,04,06,07,04,11.50
2007,04,06,07,05,11.60
2007,04,06,07,06,11.60
2007,04,06,07,07,11.70
2007,04,06,07,08,11.70
2007,04,06,07,09,11.70
2007,04,06,07,10,11.80
2007,04,06,07,11,11.80
2007,04,06,07,12,11.80
2007,04,06,07,13,11.80
2007,04,06,07,14,11.80
2007,04,06,07,15,11.80
2007,04,06,07,16,11.80
2007,04,06,07,17,11.80
2007,04,06,07,18,11.80
2007,04,06,07,19,11.80
2007,04,06,07,20,11.90
2007,04,06,07,21,12.00
2007,04,06,07,22,12.00
2007,04,06,07,23,12.10
2007,04,06,07,24,12.10
2007,04,06,07,25,12.10
2007,04,06,07,26,12.10
2007,04,06,07,27,12.20
2007,04,06,07,28,12.20
2007,04,06,07,29,12.20
2007,04,06,07,30,12.30
2007,04,06,07,31,12.30
2007,04,06,07,32,12.40
2007,04,06,07,33,12.40
2007,04,06,07,34,12.50
2007,04,06,07,35,12.50
2007,04,06,07,36,12.50
2007,04,06,07,37,12.60
2007,04,06,07,38,12.70
2007,04,06,07,39,12.70
2007,04,06,07,40,12.80
2007,04,06,07,41,12.80
2007,04,06,07,42,12.90
2007,04,06,07,43,12.90
2007,04,06,07,44,13.00
2007,04,06,07,45,13.10
2007,04,06,07,46,13.10
2007,04,06,07,47,13.20
2007,04,06,07,48,13.20
2007,04,06,07,49,13.30
2007,04,06,07,50,13.30
2007,04,06,07,51,13.30
2007,04,06,07,52,13.40
2007,04,06,07,53,13.40
2007,04,06,07,54,13.50
2007,04,06,07,55,13.50
2007,04,06,07,56,13.60
2007,04,06,07,57,13.60
2007,04,06,07,58,13.70
2007,04,06,07,59,13.70
2007,04,06,08,00,13.70
2007,04,06,08,01,13.70
2007,04,06,08,02,13.80
2007,04,06,08,03,13.80
2007,04,06,08,04,13.80
2007,04,06,08,05,13.90
2007,04,06,08,06,13.90
2007,04,06,08,07,13.90
2007,04,06,08,08,13.90
2007,04,06,08,09,14.00
2007,04,06,08,10,14.00
2007,04,06,08,11,14.00
2007,04,06,08,12,14.00
2007,04,06,08,13,14.00
2007,04,06,08,14,14.10
2007,04,06,08,15,14.10
2007,04,06,08,16,14.10
2007,04,06,08,17,14.20
2007,04,06,08,18,14.20
2007,04,06,08,19,14.20
2007,04,06,08,20,14.20
2007,04,06,08,21,14.30
2007,04,06,08,22,14.30
2007,04,06,08,23,14.40
2007,04,06,08,24,14.40
2007,04,06,08,25,14.30
2007,04,06,08,26,14.20
2007,04,06,08,27,14.20
2007,04,06,08,28,14.20
2007,04,06,08,29,14.30
2007,04,06,08,30,14.30
2007,04,06,08,31,14.40
2007,04,06,08,32,14.50
2007,04,06,08,33,14.60
2007,04,06,08,34,14.70
2007,04,06,08,35,14.80
2007,04,06,08,36,14.90
2007,04,06,08,37,15.00
2007,04,06,08,38,15.00
2007,04,06,08,39,15.10
2007,04,06,08,40,15.30
2007,04,06,08,41,15.30
2007,04,06,08,42,15.40
2007,04,06,08,43,15.40
2007,04,06,08,44,15.50
2007,04,06,08,45,15.50
2007,04,06,08,46,15.50
2007,04,06,08,47,15.60
2007,04,06,08,48,15.60
2007,04,06,08,49,15.60
2007,04,06,08,50,15.60
2007,04,06,08,51,15.60
2007,04,06,08,52,15.60
2007,04,06,08,53,15.60
2007,04,06,08,54,15.60
2007,04,06,08,55,15.60
2007,04,06,08,56,15.60
2007,04,06,08,57,15.60
2007,04,06,08,58,15.70
2007,04,06,08,59,15.80
2007,04,06,09,00,15.80
2007,04,06,09,01,15.90
2007,04,06,09,02,15.90
2007,04,06,09,03,15.90
2007,04,06,09,04,15.90
2007,04,06,09,05,15.80
2007,04,06,09,06,15.80
2007,04,06,09,07,15.80
2007,04,06,09,08,15.80
2007,04,06,09,09,15.80
2007,04,06,09,10,15.80
2007,04,06,09,11,15.80
2007,04,06,09,12,15.80
2007,04,06,09,13,15.80
2007,04,06,09,14,15.70
2007,04,06,09,15,15.70
2007,04,06,09,16,15.60
2007,04,06,09,17,15.60
2007,04,06,09,18,15.60
2007,04,06,09,19,15.60
2007,04,06,09,20,15.60
2007,04,06,09,21,15.60
2007,04,06,09,22,15.70
2007,04,06,09,23,15.70
2007,04,06,09,24,15.70
2007,04,06,09,25,15.80
2007,04,06,09,26,15.80
2007,04,06,09,27,16.00
2007,04,06,09,28,16.10
2007,04,06,09,29,16.20
2007,04,06,09,30,16.30
2007,04,06,09,31,16.30
2007,04,06,09,32,16.40
2007,04,06,09,33,16.40
2007,04,06,09,34,16.50
2007,04,06,09,35,16.70
2007,04,06,09,36,16.70
2007,04,06,09,37,16.70
2007,04,06,09,38,16.70
2007,04,06,09,39,16.70
2007,04,06,09,40,16.60
2007,04,06,09,41,16.50
2007,04,06,09,42,16.40
2007,04,06,09,43,16.40
2007,04,06,09,44,16.40
2007,04,06,09,45,16.40
2007,04,06,09,46,16.50
2007,04,06,09,47,16.70
2007,04,06,09,48,16.70
2007,04,06,09,49,16.60
2007,04,06,09,50,16.60
2007,04,06,09,51,16.40
2007,04,06,09,52,16.40
2007,04,06,09,53,16.50
2007,04,06,09,54,16.60
2007,04,06,09,55,16.60
2007,04,06,09,56,16.50
2007,04,06,09,57,16.50
2007,04,06,09,58,16.60
2007,04,06,09,59,16.60
2007,04,06,10,00,16.60
2007,04,06,10,01,16.50
2007,04,06,10,02,16.40
2007,04,06,10,03,16.40
2007,04,06,10,04,16.40
2007,04,06,10,05,16.40
2007,04,06,10,06,16.40
2007,04,06,10,07,16.40
2007,04,06,10,08,16.40
2007,04,06,10,09,16.40
2007,04,06,10,10,16.40
2007,04,06,10,11,16.30
2007,04,06,10,12,16.30
2007,04,06,10,13,16.30
2007,04,06,10,14,16.40
2007,04,06,10,15,16.40
2007,04,06,10,16,16.30
2007,04,06,10,17,16.40
2007,04,06,10,18,16.40
2007,04,06,10,19,16.40
2007,04,06,10,20,16.40
2007,04,06,10,21,16.40
2007,04,06,10,22,16.50
2007,04,06,10,23,16.60
2007,04,06,10,24,16.60
2007,04,06,10,25,16.60
2007,04,06,10,26,16.60
2007,04,06,10,27,16.60
2007,04,06,10,28,16.60
2007,04,06,10,29,16.40
2007,04,06,10,30,16.40
2007,04,06,10,31,16.40
2007,04,06,10,32,16.40
2007,04,06,10,33,16.50
2007,04,06,10,34,16.60
2007,04,06,10,35,16.60
2007,04,06,10,36,16.60
2007,04,06,10,37,16.60
2007,04,06,10,38,16.60
2007,04,06,10,39,16.60
2007,04,06,10,40,16.70
2007,04,06,10,41,16.70
2007,04,06,10,42,16.70
2007,04,06,10,43,16.90
2007,04,06,10,44,16.90
2007,04,06,10,45,16.90
2007,04,06,10,46,17.00
2007,04,06,10,47,17.00
2007,04,06,10,48,17.10
2007,04,06,10,49,17.20
2007,04,06,10,50,17.30
2007,04,06,10,51,17.30
2007,04,06,10,52,17.30
2007,04,06,10,53,17.30
2007,04,06,10,54,17.40
2007,04,06,10,55,17.50
2007,04,06,10,56,17.50
2007,04,06,10,57,17.50
2007,04,06,10,58,17.60
2007,04,06,10,59,17.70
2007,04,06,11,00,17.70
2007,04,06,11,01,17.60
2007,04,06,11,02,17.60
2007,04,06,11,03,17.60
2007,04,06,11,04,17.50
2007,04,06,11,05,17.40
2007,04,06,11,06,17.40
2007,04,06,11,07,17.40
2007,04,06,11,08,17.30
2007,04,06,11,09,17.20
2007,04,06,11,10,17.10
2007,04,06,11,11,17.10
2007,04,06,11,12,17.00
2007,04,06,11,13,17.00
2007,04,06,11,14,17.10
2007,04,06,11,15,17.10
2007,04,06,11,16,17.20
2007,04,06,11,17,17.30
2007,04,06,11,18,17.30
2007,04,06,11,19,17.40
2007,04,06,11,20,17.50
2007,04,06,11,21,17.70
2007,04,06,11,22,17.80
2007,04,06,11,23,18.00
2007,04,06,11,24,18.10
2007,04,06,11,25,18.20
2007,04,06,11,26,18.20
2007,04,06,11,27,18.20
2007,04,06,11,28,18.20
2007,04,06,11,29,18.20
2007,04,06,11,30,18.20
2007,04,06,11,31,18.10
2007,04,06,11,32,18.10
2007,04,06,11,33,18.10
2007,04,06,11,34,18.20
2007,04,06,11,35,18.20
2007,04,06,11,36,18.20
2007,04,06,11,37,18.20
2007,04,06,11,38,18.30
2007,04,06,11,39,18.40
2007,04,06,11,40,18.40
2007,04,06,11,41,18.50
2007,04,06,11,42,18.60
2007,04,06,11,43,18.70
2007,04,06,11,44,18.70
2007,04,06,11,45,18.70
2007,04,06,11,46,18.70
2007,04,06,11,47,18.80
2007,04,06,11,48,18.80
2007,04,06,11,49,18.80
2007,04,06,11,50,18.80
2007,04,06,11,51,18.80
2007,04,06,11,52,18.80
2007,04,06,11,53,18.80
2007,04,06,11,54,18.80
2007,04,06,11,55,18.90
2007,04,06,11,56,18.90
2007,04,06,11,57,18.80
2007,04,06,11,58,18.80
2007,04,06,11,59,18.80
2007,04,06,12,00,18.90
2007,04,06,12,01,18.90
2007,04,06,12,02,18.90
2007,04,06,12,03,18.90
2007,04,06,12,04,18.90
2007,04,06,12,05,18.90
2007,04,06,12,06,18.80
2007,04,06,12,07,18.70
2007,04,06,12,08,18.70
2007,04,06,12,09,18.70
2007,04,06,12,10,18.70
2007,04,06,12,11,18.70
2007,04,06,12,12,18.70
2007,04,06,12,13,18.90
2007,04,06,12,14,18.90
2007,04,06,12,15,19.00
2007,04,06,12,16,19.10
2007,04,06,12,17,19.10
2007,04,06,12,18,19.10
2007,04,06,12,19,19.10
2007,04,06,12,20,19.20
2007,04,06,12,21,19.30
2007,04,06,12,22,19.30
2007,04,06,12,23,19.30
2007,04,06,12,24,19.30
2007,04,06,12,25,19.30
2007,04,06,12,26,19.30
2007,04,06,12,27,19.30
2007,04,06,12,28,19.40
2007,04,06,12,29,19.40
2007,04,06,12,30,19.50
2007,04,06,12,31,19.50
2007,04,06,12,32,19.50
2007,04,06,12,33,19.50
2007,04,06,12,34,19.50
2007,04,06,12,35,19.50
2007,04,06,12,36,19.50
2007,04,06,12,37,19.50
2007,04,06,12,38,19.60
2007,04,06,12,39,19.50
2007,04,06,12,40,19.50
2007,04,06,12,41,19.50
2007,04,06,12,42,19.60
2007,04,06,12,43,19.60
2007,04,06,12,44,19.80
2007,04,06,12,45,19.90
2007,04,06,12,46,19.90
2007,04,06,12,47,19.90
2007,04,06,12,48,19.90
2007,04,06,12,49,19.90
2007,04,06,12,50,19.90
2007,04,06,12,51,19.90
2007,04,06,12,52,19.90
2007,04,06,12,53,19.90
2007,04,06,12,54,20.10
2007,04,06,12,55,20.20
2007,04,06,12,56,20.20
2007,04,06,12,57,20.20
2007,04,06,12,58,20.20
2007,04,06,12,59,20.20
2007,04,06,13,00,20.10
2007,04,06,13,01,20.00
2007,04,06,13,02,19.90
2007,04,06,13,03,19.90
2007,04,06,13,04,19.80
2007,04,06,13,05,19.90
2007,04,06,13,06,19.90
2007,04,06,13,07,19.90
2007,04,06,13,08,19.90
2007,04,06,13,09,19.90
2007,04,06,13,10,19.90
2007,04,06,13,11,19.80
2007,04,06,13,12,19.80
2007,04,06,13,13,19.70
2007,04,06,13,14,19.70
2007,04,06,13,15,19.70
2007,04,06,13,16,19.80
2007,04,06,13,17,19.80
2007,04,06,13,18,19.90
2007,04,06,13,19,19.90
2007,04,06,13,20,20.00
2007,04,06,13,21,20.10
2007,04,06,13,22,20.20
2007,04,06,13,23,20.30
2007,04,06,13,24,20.40
2007,04,06,13,25,20.40
2007,04,06,13,26,20.40
2007,04,06,13,27,20.40
2007,04,06,13,28,20.40
2007,04,06,13,29,20.40
2007,04,06,13,30,20.40
2007,04,06,13,31,20.50
2007,04,06,13,32,20.50
2007,04,06,13,33,20.50
2007,04,06,13,34,20.50
2007,04,06,13,35,20.50
2007,04,06,13,36,20.50
2007,04,06,13,37,20.50
2007,04,06,13,38,20.50
2007,04,06,13,39,20.40
2007,04,06,13,40,20.40
2007,04,06,13,41,20.50
2007,04,06,13,42,20.50
2007,04,06,13,43,20.50
2007,04,06,13,44,20.60
2007,04,06,13,45,20.70
2007,04,06,13,46,20.70
2007,04,06,13,47,20.80
2007,04,06,13,48,20.90
2007,04,06,13,49,21.00
2007,04,06,13,50,21.10
2007,04,06,13,51,21.10
2007,04,06,13,52,21.10
2007,04,06,13,53,21.20
2007,04,06,13,54,21.20
2007,04,06,13,55,21.10
2007,04,06,13,56,21.20
2007,04,06,13,57,21.20
2007,04,06,13,58,21.20
2007,04,06,13,59,21.30
2007,04,06,14,00,21.20
2007,04,06,14,01,21.20
2007,04,06,14,02,21.10
2007,04,06,14,03,21.00
2007,04,06,14,04,20.90
2007,04,06,14,05,20.90
2007,04,06,14,06,20.90
2007,04,06,14,07,20.90
2007,04,06,14,08,21.00
2007,04,06,14,09,21.00
2007,04,06,14,10,21.00
2007,04,06,14,11,21.00
2007,04,06,14,12,21.10
2007,04,06,14,13,21.10
2007,04,06,14,14,21.10
2007,04,06,14,15,21.20
2007,04,06,14,16,21.10
2007,04,06,14,17,21.10
2007,04,06,14,18,21.00
2007,04,06,14,19,21.00
2007,04,06,14,20,21.00
2007,04,06,14,21,21.10
2007,04,06,14,22,21.10
2007,04,06,14,23,21.10
2007,04,06,14,24,21.10
2007,04,06,14,25,21.00
2007,04,06,14,26,21.00
2007,04,06,14,27,21.00
2007,04,06,14,28,21.00
2007,04,06,14,29,20.90
2007,04,06,14,30,20.90
2007,04,06,14,31,20.90
2007,04,06,14,32,20.90
2007,04,06,14,33,21.00
2007,04,06,14,34,20.90
2007,04,06,14,35,20.90
2007,04,06,14,36,20.80
2007,04,06,14,37,20.80
2007,04,06,14,38,20.80
2007,04,06,14,39,20.80
2007,04,06,14,40,20.80
2007,04,06,14,41,20.70
2007,04,06,14,42,20.70
2007,04,06,14,43,20.70
2007,04,06,14,44,20.60
2007,04,06,14,45,20.60
2007,04,06,14,46,20.70
2007,04,06,14,47,20.70
2007,04,06,14,48,20.70
2007,04,06,14,49,20.80
2007,04,06,14,50,20.70
2007,04,06,14,51,20.70
2007,04,06,14,52,20.60
2007,04,06,14,53,20.60
2007,04,06,14,54,20.70
2007,04,06,14,55,20.70
2007,04,06,14,56,20.70
2007,04,06,14,57,20.70
2007,04,06,14,58,20.70
2007,04,06,14,59,20.70
2007,04,06,15,00,20.70
2007,04,06,15,01,20.80
2007,04,06,15,02,20.80
2007,04,06,15,03,20.90
2007,04,06,15,04,21.00
2007,04,06,15,05,21.10
2007,04,06,15,06,21.10
2007,04,06,15,07,21.10
2007,04,06,15,08,21.20
2007,04,06,15,09,21.20
2007,04,06,15,10,21.30
2007,04,06,15,11,21.30
2007,04,06,15,12,21.30
2007,04,06,15,13,21.30
2007,04,06,15,14,21.30
2007,04,06,15,15,21.30
2007,04,06,15,16,21.30
2007,04,06,15,17,21.30
2007,04,06,15,18,21.30
2007,04,06,15,19,21.30
2007,04,06,15,20,21.30
2007,04,06,15,21,21.20
2007,04,06,15,22,21.20
2007,04,06,15,23,21.30
2007,04,06,15,24,21.30
2007,04,06,15,25,21.30
2007,04,06,15,26,21.30
2007,04,06,15,27,21.30
2007,04,06,15,28,21.30
2007,04,06,15,29,21.40
2007,04,06,15,30,21.40
2007,04,06,15,31,21.40
2007,04,06,15,32,21.30
2007,04,06,15,33,21.20
2007,04,06,15,34,21.20
2007,04,06,15,35,21.10
2007,04,06,15,36,21.10
2007,04,06,15,37,21.10
2007,04,06,15,38,21.10
2007,04,06,15,39,21.10
2007,04,06,15,40,21.10
2007,04,06,15,41,21.10
2007,04,06,15,42,21.10
2007,04,06,15,43,21.10
2007,04,06,15,44,21.00
2007,04,06,15,45,21.10
2007,04,06,15,46,21.10
2007,04,06,15,47,21.10
2007,04,06,15,48,21.10
2007,04,06,15,49,21.10
2007,04,06,15,50,21.10
2007,04,06,15,51,21.10
2007,04,06,15,52,21.10
2007,04,06,15,53,21.10
2007,04,06,15,54,21.10
2007,04,06,15,55,21.20
2007,04,06,15,56,21.20
2007,04,06,15,57,21.30
2007,04,06,15,58,21.30
2007,04,06,15,59,21.30
2007,04,06,16,00,21.30
2007,04,06,16,01,21.30
2007,04,06,16,02,21.30
2007,04,06,16,03,21.30
2007,04,06,16,04,21.40
2007,04,06,16,05,21.40
2007,04,06,16,06,21.50
2007,04,06,16,07,21.60
2007,04,06,16,08,21.60
2007,04,06,16,09,21.60
2007,04,06,16,10,21.70
2007,04,06,16,11,21.70
2007,04,06,16,12,21.80
2007,04,06,16,13,21.90
2007,04,06,16,14,21.90
2007,04,06,16,15,21.90
2007,04,06,16,16,21.90
2007,04,06,16,17,21.80
2007,04,06,16,18,21.70
2007,04,06,16,19,21.60
2007,04,06,16,20,21.50
2007,04,06,16,21,21.40
2007,04,06,16,22,21.40
2007,04,06,16,23,21.40
2007,04,06,16,24,21.40
2007,04,06,16,25,21.40
2007,04,06,16,26,21.30
2007,04,06,16,27,21.30
2007,04,06,16,28,21.30
2007,04,06,16,29,21.30
2007,04,06,16,30,21.30
2007,04,06,16,31,21.30
2007,04,06,16,32,21.30
2007,04,06,16,33,21.20
2007,04,06,16,34,21.20
2007,04,06,16,35,21.20
2007,04,06,16,36,21.30
2007,04,06,16,37,21.50
2007,04,06,16,38,21.60
2007,04,06,16,39,21.60
2007,04,06,16,40,21.60
2007,04,06,16,41,21.60
2007,04,06,16,42,21.70
2007,04,06,16,43,21.70
2007,04,06,16,44,21.70
2007,04,06,16,45,21.70
2007,04,06,16,46,21.70
2007,04,06,16,47,21.70
2007,04,06,16,48,21.80
2007,04,06,16,49,21.80
2007,04,06,16,50,21.90
2007,04,06,16,51,21.90
2007,04,06,16,52,21.90
2007,04,06,16,53,21.90
2007,04,06,16,54,21.90
2007,04,06,16,55,21.90
2007,04,06,16,56,21.80
2007,04,06,16,57,21.70
2007,04,06,16,58,21.70
2007,04,06,16,59,21.60
2007,04,06,17,00,21.60
2007,04,06,17,01,21.60
2007,04,06,17,02,21.60
2007,04,06,17,03,21.60
2007,04,06,17,04,21.60
2007,04,06,17,05,21.60
2007,04,06,17,06,21.70
2007,04,06,17,07,21.70
2007,04,06,17,08,21.70
2007,04,06,17,09,21.70
2007,04,06,17,10,21.70
2007,04,06,17,11,21.70
2007,04,06,17,12,21.60
2007,04,06,17,13,21.60
2007,04,06,17,14,21.60
2007,04,06,17,15,21.60
2007,04,06,17,16,21.70
2007,04,06,17,17,21.70
2007,04,06,17,18,21.70
2007,04,06,17,19,21.60
2007,04,06,17,20,21.60